• Processing (Info)

  • MPEC 2019-N75 : 2019 NV1

    The following Minor Planet Electronic Circular may be linked-to from your own Web pages, but must not otherwise be redistributed electronically.

    A form allowing access to any MPEC is at the bottom of this page.


    Read MPEC 2019-N74 Read MPEC 2019-N76


    M.P.E.C. 2019-N75                                Issued 2019 July 5, 17:25 UT  
    
         The Minor Planet Electronic Circulars contain information on unusual
             minor planets and routine data on comets.  They are published
        on behalf of Division F of the International Astronomical Union by the
              Minor Planet Center, Smithsonian Astrophysical Observatory,
                              Cambridge, MA 02138, U.S.A.
    
                 Prepared using the Tamkin Foundation Computer Network
    
                                  MPC@CFA.HARVARD.EDU
                URL https://www.minorplanetcenter.net/    ISSN 1523-6714
    
                                    2019 NV1                                 
    
    Observations:
         K19N01V* C2019 07 03.41268 22 53 45.73 -06 34 00.9          20.8 GVEN075G96
         K19N01V  C2019 07 03.41789 22 53 47.93 -06 34 18.9          21.3 GVEN075G96
         K19N01V  C2019 07 03.42308 22 53 50.26 -06 34 36.7          21.7 GVEN075G96
         K19N01V  C2019 07 03.42828 22 53 52.37 -06 34 54.9          21.2 GVEN075G96
         K19N01V  C2019 07 03.45144 22 54 02.15 -06 36 14.3          20.1 GVEN075I52
         K19N01V  C2019 07 03.45390 22 54 03.22 -06 36 23.1          20.7 GVEN075I52
         K19N01V |C2019 07 04.29274 23 00 18.00 -07 22 08.9          21.3 VuEN075807
         K19N01V |C2019 07 04.30054 23 00 21.18 -07 22 35.0          21.6 VuEN075807
         K19N01V |C2019 07 04.30805 23 00 24.31 -07 22 59.2          21.5 VuEN075807
         K19N01V  C2019 07 04.38063 23 00 56.78 -07 28 19.1          20.9 GVEN075I52
         K19N01V  C2019 07 04.38314 23 00 57.82 -07 28 27.7          20.9 GVEN075I52
         K19N01V  C2019 07 04.38564 23 00 58.86 -07 28 36.9          20.1 GVEN075I52
         K19N01V  C2019 07 04.38814 23 00 59.85 -07 28 45.2          21.1 GVEN075I52
         K19N01V  C2019 07 05.39716 23 08 08.98 -08 23 22.3          21.0 GVEN075I52
         K19N01V  C2019 07 05.40224 23 08 10.99 -08 23 38.6                VEN075I52
         K19N01V  C2019 07 05.40660 23 08 12.68 -08 23 52.9                VEN075I52
         K19N01V  C2019 07 05.40910 23 08 13.67 -08 24 00.0          20.6 GVEN075I52
    
    Observer details:
    807 Cerro Tololo Observatory, La Serena.  Observers T. Linder, R. Holmes.  
        0.61-m f/6.5 astrograph + CCD.
    G96 Mt. Lemmon Survey.  Observer T. A. Pruyne.  Measurers B. M. Africano,
        E. J. Christensen, G. A. Farneth, D. C. Fuls, A. R. Gibbs, A. D. Grauer,
        H. Groeller, R. A. Kowalski, S. M. Larson, G. J. Leonard, T. A. Pruyne,
        D. Rankin, R. L. Seaman, F. C. Shelly.  1.5-m reflector + 10K CCD.
    I52 Steward Observatory, Mt. Lemmon Station.  Observers D. Rankin,
        G. J. Leonard.  Measurers B. M. Africano, E. J. Christensen, G. A. Farneth,
        D. C. Fuls, A. R. Gibbs, A. D. Grauer, H. Groeller, R. A. Kowalski,
        S. M. Larson, G. J. Leonard, T. A. Pruyne, D. Rankin, R. L. Seaman,
        F. C. Shelly.  1.0-m reflector + CCD.
    
    Orbital elements:
    2019 NV1                                                 Earth MOID = 0.0557 AU
    Epoch 2019 Apr. 27.0 TT = JDT 2458600.5                 MPC
    M 338.45654              (2000.0)            P               Q
    n   0.33776685     Peri.  175.74851     +0.21052467     +0.96709163
    a   2.0420108      Node   106.35812     -0.90125374     +0.24861919
    e   0.4749122      Incl.    8.56331     -0.37870972     -0.05405810
    P   2.92           H   23.8           G   0.15           U   8
    Residuals in seconds of arc
    190703 G96  0.3+  0.1-    190704 807  0.7+  0.1-    190704 I52  0.3-  1.1+
    190703 G96  0.1-  0.1-    190704 807  0.4+  0.1-    190705 I52  0.2-  0.3-
    190703 G96 (1.6+  0.0 )   190704 807 (1.1+  0.8+)   190705 I52  0.0   0.3-
    190703 G96  0.0   0.3-    190704 I52 (0.0   2.1+)   190705 I52  0.2-  0.6-
    190703 I52 (1.1-  0.1-)   190704 I52 (0.1+  1.9+)   190705 I52  0.0   0.3+
    190703 I52  0.7-  0.5-    190704 I52  0.3+  1.1+
    
    Ephemeris:
    2019 NV1                 a,e,i = 2.04, 0.47, 9                   q = 1.0722
    Date    TT    R. A. (2000) Decl.     Delta      r    Elong.  Phase     V
    2019 06 05    18 36 55.8 +16 18 57   0.1315  1.1087   133.2    41.8    21.3
    ...
    2019 06 20    20 49 06.5 +07 38 48   0.09867 1.0780   126.7    49.1    20.8
    ...
    2019 06 28    22 08 16.0 -00 58 26   0.1001  1.0724   121.6    53.9    20.9
    ...
    2019 07 04    22 58 06.6 -07 06 21   0.1095  1.0733   118.5    56.4    21.2
    2019 07 05    23 05 19.6 -08 01 16   0.1115  1.0739   118.1    56.6    21.2
    2019 07 06    23 12 13.6 -08 54 06   0.1138  1.0745   117.8    56.8    21.3
    ...
    2019 07 12    23 47 18.6 -13 28 13   0.1292  1.0812   116.9    57.0    21.6
    ...
    2019 07 20    00 19 42.6 -17 58 21   0.1535  1.0966   118.0    54.9    21.9
    ...
    2019 08 04    00 49 16.7 -23 34 27   0.2037  1.1437   125.0    46.6    22.4
    
    A. U. Tomatic                (C) Copyright 2019 MPC           M.P.E.C. 2019-N75
    


    Read MPEC 2019-N74 Read MPEC 2019-N76


    MPEC number:

    Enter an MPEC number in one of the following forms:

    • 1997-B01 (the full form)
    • J97B01 (the packed version of the full form)
    • B01 (the abbreviated form)